Flag Weather past 2 weeks in Melsungen, Hesse, Germany

Now
32 °F

Fog.


Feels Like: 32 °F
Forecast: 42 / 49 °F
Wind: 2 mph from Northwest

Location: Fritzlar

Current Time: Nov 22, 2014 at 1:33:21 AM

Latest Report: Nov 22, 2014 at 1:00 AM


Visibility: 4 mi

Pressure: 30.22 "Hg

Humidity: 97%

Dew point: 31 °F

Location of MelsungenLocation

Historic Weather in Melsungen — Graph

°F

Melsungen temperature yesterday

Maximum temperature yesterday: 44 °F (at 12:00 PM)
Minimum temperature yesterday: 33 °F (at 11:00 PM)
Average temperature yesterday: 41 °F

Past Weeks' High & Low Weather Summary

 TemperatureHumidityPressure
High53 °F (Nov 11, 3:00 PM)98% (Nov 9, 7:00 AM)30.36 "Hg (Nov 9, 7:00 AM)
Low32 °F (Nov 22, 12:00 AM)71% (Nov 8, 3:00 PM)29.50 "Hg (Nov 16, 5:00 AM)
Average45 °F89%29.89 "Hg
* Reported Midnight between Nov 6 and Nov 7 — Midnight between Nov 21 and Nov 22, Melsungen, Weather by CustomWeather, © 2014

Note: Actual official high and low records may vary slightly from our data, if they occured in-between our weather recording intervals... More about our weather records

Advertising

Melsungen weather history for previous 24 hours

 ConditionsComfort  
Time TempWeatherWind HumidityBarometerVisibility
12:00 AM
Nov 22
32 °FFog.1 mph97%30.23 "Hg4 mi
11:00 PM
Nov 21
33 °FFog.2 mph97%30.23 "Hg4 mi
10:00 PM33 °FFog.1 mph97%30.24 "Hg5 mi
9:00 PM35 °FFog.1 mph96%30.23 "Hg6 mi
8:00 PM37 °FPassing clouds.N/A94%30.22 "Hg9 mi
7:00 PM41 °FClear.2 mph86%30.22 "Hg9 mi
6:00 PM42 °FOvercast.3 mph85%30.22 "Hg11 mi
5:00 PM44 °FOvercast.3 mph80%30.22 "Hg11 mi
4:00 PM44 °FOvercast.3 mph79%30.22 "Hg13 mi
3:00 PM44 °FOvercast.5 mph81%30.23 "Hg13 mi
2:00 PM44 °FOvercast.5 mph81%30.24 "Hg13 mi
1:00 PM44 °FOvercast.5 mph81%30.26 "Hg13 mi
12:00 PM44 °FOvercast.3 mph81%30.27 "Hg9 mi
11:00 AM43 °FOvercast.N/A84%30.29 "Hg7 mi
10:00 AM42 °FOvercast.3 mph87%30.29 "Hg7 mi
9:00 AM41 °FOvercast.1 mph90%30.29 "Hg7 mi
8:00 AM42 °FOvercast.2 mph87%30.29 "Hg10 mi
7:00 AM41 °FOvercast.1 mph87%30.29 "Hg10 mi
6:00 AM41 °FOvercast.2 mph87%30.29 "Hg10 mi
5:00 AM41 °FOvercast.1 mph90%30.30 "Hg10 mi
4:00 AM40 °FOvercast.1 mph90%30.32 "Hg7 mi
3:00 AM39 °FOvercast.1 mph94%30.33 "Hg9 mi
2:00 AM40 °FPassing clouds.1 mph89%30.32 "Hg9 mi
1:00 AM42 °FOvercast.1 mph85%30.33 "Hg9 mi
Weather by CustomWeather, © 2014

See weather overviewHow to use our weather pages